Year,Month,Day,Hour,Minute,Value (Times are PST for windspeed in km/hr)
2018,05,28,00,00,0.30
2018,05,28,00,01,0.10
2018,05,28,00,02,0.60
2018,05,28,00,03,1.60
2018,05,28,00,04,1.10
2018,05,28,00,05,3.30
2018,05,28,00,06,4.40
2018,05,28,00,07,5.20
2018,05,28,00,08,3.80
2018,05,28,00,09,0.80
2018,05,28,00,10,1.10
2018,05,28,00,11,0.50
2018,05,28,00,12,0.70
2018,05,28,00,13,0.10
2018,05,28,00,14,0.00
2018,05,28,00,15,0.00
2018,05,28,00,16,0.50
2018,05,28,00,17,0.00
2018,05,28,00,18,1.20
2018,05,28,00,19,1.80
2018,05,28,00,20,3.40
2018,05,28,00,21,2.60
2018,05,28,00,22,1.60
2018,05,28,00,23,2.40
2018,05,28,00,24,2.70
2018,05,28,00,25,3.70
2018,05,28,00,26,2.20
2018,05,28,00,27,3.20
2018,05,28,00,28,0.50
2018,05,28,00,29,2.10
2018,05,28,00,30,7.10
2018,05,28,00,31,2.00
2018,05,28,00,32,4.20
2018,05,28,00,33,4.70
2018,05,28,00,34,5.80
2018,05,28,00,35,1.80
2018,05,28,00,36,3.50
2018,05,28,00,37,3.10
2018,05,28,00,38,1.60
2018,05,28,00,39,1.20
2018,05,28,00,40,1.10
2018,05,28,00,41,0.10
2018,05,28,00,42,1.20
2018,05,28,00,43,2.30
2018,05,28,00,44,0.70
2018,05,28,00,45,1.60
2018,05,28,00,46,0.10
2018,05,28,00,47,1.80
2018,05,28,00,48,2.30
2018,05,28,00,49,1.40
2018,05,28,00,50,0.30
2018,05,28,00,51,1.50
2018,05,28,00,52,2.60
2018,05,28,00,53,0.60
2018,05,28,00,54,2.60
2018,05,28,00,55,1.00
2018,05,28,00,56,1.50
2018,05,28,00,57,0.40
2018,05,28,00,58,0.80
2018,05,28,00,59,1.10
2018,05,28,01,00,1.70
2018,05,28,01,01,2.00
2018,05,28,01,02,0.20
2018,05,28,01,03,0.20
2018,05,28,01,04,2.00
2018,05,28,01,05,1.50
2018,05,28,01,06,1.60
2018,05,28,01,07,3.00
2018,05,28,01,08,2.60
2018,05,28,01,09,4.00
2018,05,28,01,10,4.30
2018,05,28,01,11,3.30
2018,05,28,01,12,3.70
2018,05,28,01,13,2.60
2018,05,28,01,14,0.90
2018,05,28,01,15,3.00
2018,05,28,01,16,3.20
2018,05,28,01,17,1.40
2018,05,28,01,18,2.70
2018,05,28,01,19,2.20
2018,05,28,01,20,0.80
2018,05,28,01,21,1.50
2018,05,28,01,22,0.00
2018,05,28,01,23,1.30
2018,05,28,01,24,0.70
2018,05,28,01,25,2.50
2018,05,28,01,26,2.40
2018,05,28,01,27,1.60
2018,05,28,01,28,1.90
2018,05,28,01,29,3.00
2018,05,28,01,30,2.30
2018,05,28,01,31,2.10
2018,05,28,01,32,2.40
2018,05,28,01,33,0.20
2018,05,28,01,34,0.10
2018,05,28,01,35,0.50
2018,05,28,01,36,2.30
2018,05,28,01,37,0.40
2018,05,28,01,38,1.30
2018,05,28,01,39,1.20
2018,05,28,01,40,0.80
2018,05,28,01,41,2.40
2018,05,28,01,42,2.40
2018,05,28,01,43,1.40
2018,05,28,01,44,2.40
2018,05,28,01,45,1.80
2018,05,28,01,46,2.40
2018,05,28,01,47,1.70
2018,05,28,01,48,1.80
2018,05,28,01,49,3.20
2018,05,28,01,50,3.00
2018,05,28,01,51,2.60
2018,05,28,01,52,2.00
2018,05,28,01,53,2.10
2018,05,28,01,54,2.20
2018,05,28,01,55,2.20
2018,05,28,01,56,3.30
2018,05,28,01,57,3.10
2018,05,28,01,58,3.00
2018,05,28,01,59,6.20
2018,05,28,02,00,6.10
2018,05,28,02,01,4.50
2018,05,28,02,02,6.50
2018,05,28,02,03,4.30
2018,05,28,02,04,3.30
2018,05,28,02,05,3.50
2018,05,28,02,06,6.30
2018,05,28,02,07,5.50
2018,05,28,02,08,7.20
2018,05,28,02,09,6.50
2018,05,28,02,10,5.40
2018,05,28,02,11,5.30
2018,05,28,02,12,3.70
2018,05,28,02,13,5.80
2018,05,28,02,14,4.00
2018,05,28,02,15,3.00
2018,05,28,02,16,4.00
2018,05,28,02,17,2.40
2018,05,28,02,18,3.20
2018,05,28,02,19,1.90
2018,05,28,02,20,4.70
2018,05,28,02,21,5.80
2018,05,28,02,22,2.90
2018,05,28,02,23,0.80
2018,05,28,02,24,4.10
2018,05,28,02,25,5.20
2018,05,28,02,26,7.00
2018,05,28,02,27,5.70
2018,05,28,02,28,6.20
2018,05,28,02,29,6.90
2018,05,28,02,30,8.70
2018,05,28,02,31,6.70
2018,05,28,02,32,7.10
2018,05,28,02,33,6.40
2018,05,28,02,34,5.00
2018,05,28,02,35,5.40
2018,05,28,02,36,4.90
2018,05,28,02,37,3.40
2018,05,28,02,38,4.20
2018,05,28,02,39,5.40
2018,05,28,02,40,4.10
2018,05,28,02,41,2.70
2018,05,28,02,42,4.30
2018,05,28,02,43,5.50
2018,05,28,02,44,3.90
2018,05,28,02,45,3.80
2018,05,28,02,46,5.10
2018,05,28,02,47,5.10
2018,05,28,02,48,5.10
2018,05,28,02,49,5.90
2018,05,28,02,50,3.50
2018,05,28,02,51,3.90
2018,05,28,02,52,5.00
2018,05,28,02,53,4.30
2018,05,28,02,54,4.30
2018,05,28,02,55,3.40
2018,05,28,02,56,5.90
2018,05,28,02,57,6.00
2018,05,28,02,58,5.50
2018,05,28,02,59,4.90
2018,05,28,03,00,4.40
2018,05,28,03,01,2.60
2018,05,28,03,02,3.60
2018,05,28,03,03,3.40
2018,05,28,03,04,8.20
2018,05,28,03,05,6.50
2018,05,28,03,06,9.10
2018,05,28,03,07,6.00
2018,05,28,03,08,4.50
2018,05,28,03,09,4.90
2018,05,28,03,10,5.20
2018,05,28,03,11,4.80
2018,05,28,03,12,3.50
2018,05,28,03,13,5.10
2018,05,28,03,14,5.10
2018,05,28,03,15,3.80
2018,05,28,03,16,6.70
2018,05,28,03,17,8.60
2018,05,28,03,18,4.90
2018,05,28,03,19,4.40
2018,05,28,03,20,4.40
2018,05,28,03,21,1.20
2018,05,28,03,22,2.20
2018,05,28,03,23,3.00
2018,05,28,03,24,5.20
2018,05,28,03,25,6.70
2018,05,28,03,26,6.20
2018,05,28,03,27,8.50
2018,05,28,03,28,7.90
2018,05,28,03,29,9.00
2018,05,28,03,30,8.70
2018,05,28,03,31,6.90
2018,05,28,03,32,4.40
2018,05,28,03,33,5.80
2018,05,28,03,34,4.70
2018,05,28,03,35,7.30
2018,05,28,03,36,4.40
2018,05,28,03,37,5.00
2018,05,28,03,38,8.20
2018,05,28,03,39,7.90
2018,05,28,03,40,5.90
2018,05,28,03,41,7.50
2018,05,28,03,42,7.70
2018,05,28,03,43,5.50
2018,05,28,03,44,6.00
2018,05,28,03,45,7.60
2018,05,28,03,46,6.00
2018,05,28,03,47,4.70
2018,05,28,03,48,5.90
2018,05,28,03,49,5.60
2018,05,28,03,50,0.90
2018,05,28,03,51,5.60
2018,05,28,03,52,8.70
2018,05,28,03,53,8.80
2018,05,28,03,54,8.40
2018,05,28,03,55,6.40
2018,05,28,03,56,6.40
2018,05,28,03,57,6.90
2018,05,28,03,58,7.10
2018,05,28,03,59,4.90
2018,05,28,04,00,4.30
2018,05,28,04,01,3.20
2018,05,28,04,02,1.20
2018,05,28,04,03,2.50
2018,05,28,04,04,2.70
2018,05,28,04,08,2.70
2018,05,28,04,09,1.50
2018,05,28,04,10,0.00
2018,05,28,04,11,2.30
2018,05,28,04,12,1.80
2018,05,28,04,13,3.30
2018,05,28,04,14,3.10
2018,05,28,04,15,3.40
2018,05,28,04,16,4.10
2018,05,28,04,17,2.10
2018,05,28,04,18,4.00
2018,05,28,04,19,5.00
2018,05,28,04,20,2.20
2018,05,28,04,21,1.50
2018,05,28,04,22,4.10
2018,05,28,04,23,0.80
2018,05,28,04,24,2.60
2018,05,28,04,25,1.30
2018,05,28,04,26,1.20
2018,05,28,04,27,0.00
2018,05,28,04,28,0.80
2018,05,28,04,29,1.40
2018,05,28,04,30,1.40
2018,05,28,04,31,0.40
2018,05,28,04,32,2.00
2018,05,28,04,33,3.40
2018,05,28,04,34,1.50
2018,05,28,04,35,2.10
2018,05,28,04,36,0.10
2018,05,28,04,37,3.20
2018,05,28,04,38,3.70
2018,05,28,04,39,2.80
2018,05,28,04,40,0.80
2018,05,28,04,41,3.40
2018,05,28,04,42,2.30
2018,05,28,04,43,5.30
2018,05,28,04,44,2.90
2018,05,28,04,45,2.40
2018,05,28,04,46,2.50
2018,05,28,04,47,1.00
2018,05,28,04,48,0.00
2018,05,28,04,49,1.40
2018,05,28,04,50,1.20
2018,05,28,04,51,1.50
2018,05,28,04,52,2.40
2018,05,28,04,53,1.80
2018,05,28,04,54,0.10
2018,05,28,04,55,0.50
2018,05,28,04,56,1.50
2018,05,28,04,57,1.30
2018,05,28,04,58,0.30
2018,05,28,04,59,0.80
2018,05,28,05,00,0.60
2018,05,28,05,01,0.90
2018,05,28,05,02,0.40
2018,05,28,05,03,0.00
2018,05,28,05,04,0.60
2018,05,28,05,05,0.00
2018,05,28,05,06,2.90
2018,05,28,05,07,0.40
2018,05,28,05,08,0.00
2018,05,28,05,09,0.10
2018,05,28,05,10,0.80
2018,05,28,05,11,0.20
2018,05,28,05,12,0.20
2018,05,28,05,13,1.20
2018,05,28,05,14,1.50
2018,05,28,05,15,0.80
2018,05,28,05,16,0.60
2018,05,28,05,17,0.60
2018,05,28,05,18,2.10
2018,05,28,05,19,3.20
2018,05,28,05,20,0.60
2018,05,28,05,21,0.00
2018,05,28,05,22,0.20
2018,05,28,05,23,2.00
2018,05,28,05,24,0.80
2018,05,28,05,25,0.00
2018,05,28,05,26,1.10
2018,05,28,05,27,1.50
2018,05,28,05,28,0.40
2018,05,28,05,29,0.00
2018,05,28,05,30,0.40
2018,05,28,05,31,0.10
2018,05,28,05,32,4.50
2018,05,28,05,33,3.20
2018,05,28,05,34,1.80
2018,05,28,05,35,3.90
2018,05,28,05,36,2.40
2018,05,28,05,37,1.30
2018,05,28,05,38,1.20
2018,05,28,05,39,2.10
2018,05,28,05,40,4.30
2018,05,28,05,41,1.50
2018,05,28,05,42,0.90
2018,05,28,05,43,1.00
2018,05,28,05,44,1.20
2018,05,28,05,45,1.20
2018,05,28,05,46,1.50
2018,05,28,05,47,3.60
2018,05,28,05,48,1.80
2018,05,28,05,49,1.00
2018,05,28,05,50,5.30
2018,05,28,05,51,4.30
2018,05,28,05,52,2.90
2018,05,28,05,53,3.60
2018,05,28,05,54,4.70
2018,05,28,05,55,2.90
2018,05,28,05,56,1.60
2018,05,28,05,57,2.80
2018,05,28,05,58,5.10
2018,05,28,05,59,4.80
2018,05,28,06,00,3.10
2018,05,28,06,01,3.10
2018,05,28,06,02,3.60
2018,05,28,06,03,4.00
2018,05,28,06,04,4.50
2018,05,28,06,05,6.40
2018,05,28,06,06,5.60
2018,05,28,06,07,2.40
2018,05,28,06,08,4.70
2018,05,28,06,09,4.70
2018,05,28,06,10,5.00
2018,05,28,06,11,4.00
2018,05,28,06,12,1.90
2018,05,28,06,13,1.60
2018,05,28,06,14,4.20
2018,05,28,06,15,2.90
2018,05,28,06,16,4.20
2018,05,28,06,17,4.20
2018,05,28,06,18,4.20
2018,05,28,06,19,4.30
2018,05,28,06,20,4.20
2018,05,28,06,21,1.30
2018,05,28,06,22,2.00
2018,05,28,06,23,4.00
2018,05,28,06,24,4.10
2018,05,28,06,25,4.70
2018,05,28,06,26,6.60
2018,05,28,06,27,4.60
2018,05,28,06,28,5.80
2018,05,28,06,29,4.60
2018,05,28,06,30,4.50
2018,05,28,06,31,5.40
2018,05,28,06,32,3.40
2018,05,28,06,33,4.00
2018,05,28,06,34,3.90
2018,05,28,06,35,2.10
2018,05,28,06,36,4.70
2018,05,28,06,37,5.40
2018,05,28,06,38,2.60
2018,05,28,06,39,1.90
2018,05,28,06,40,1.20
2018,05,28,06,41,4.80
2018,05,28,06,42,4.40
2018,05,28,06,43,4.00
2018,05,28,06,44,3.60
2018,05,28,06,45,3.70
2018,05,28,06,46,3.20
2018,05,28,06,47,1.10
2018,05,28,06,48,0.90
2018,05,28,06,49,1.20
2018,05,28,06,50,0.20
2018,05,28,06,51,0.10
2018,05,28,06,52,1.70
2018,05,28,06,53,0.20
2018,05,28,06,54,0.50
2018,05,28,06,55,2.30
2018,05,28,06,56,2.50
2018,05,28,06,57,0.10
2018,05,28,06,58,0.80
2018,05,28,06,59,1.20
2018,05,28,07,00,0.20
2018,05,28,07,01,0.40
2018,05,28,07,02,0.90
2018,05,28,07,03,3.00
2018,05,28,07,04,1.60
2018,05,28,07,05,0.20
2018,05,28,07,06,1.20
2018,05,28,07,07,0.50
2018,05,28,07,08,1.30
2018,05,28,07,09,2.10
2018,05,28,07,10,0.50
2018,05,28,07,11,0.70
2018,05,28,07,12,1.10
2018,05,28,07,13,1.70
2018,05,28,07,14,3.00
2018,05,28,07,15,3.70
2018,05,28,07,16,2.50
2018,05,28,07,17,2.10
2018,05,28,07,18,0.40
2018,05,28,07,19,0.10
2018,05,28,07,20,1.50
2018,05,28,07,21,2.70
2018,05,28,07,22,3.50
2018,05,28,07,23,1.00
2018,05,28,07,24,0.10
2018,05,28,07,25,0.00
2018,05,28,07,26,0.10
2018,05,28,07,27,0.50
2018,05,28,07,28,0.00
2018,05,28,07,29,0.00
2018,05,28,07,30,0.00
2018,05,28,07,31,1.10
2018,05,28,07,32,0.70
2018,05,28,07,33,0.60
2018,05,28,07,34,0.00
2018,05,28,07,35,0.00
2018,05,28,07,36,0.50
2018,05,28,07,37,0.10
2018,05,28,07,38,0.70
2018,05,28,07,39,0.70
2018,05,28,07,40,2.10
2018,05,28,07,41,2.80
2018,05,28,07,42,1.80
2018,05,28,07,43,2.10
2018,05,28,07,44,2.60
2018,05,28,07,45,0.60
2018,05,28,07,46,0.20
2018,05,28,07,47,2.10
2018,05,28,07,48,0.40
2018,05,28,07,49,0.20
2018,05,28,07,50,1.80
2018,05,28,07,51,5.50
2018,05,28,07,52,4.60
2018,05,28,07,53,4.60
2018,05,28,07,54,4.30
2018,05,28,07,55,1.40
2018,05,28,07,56,0.40
2018,05,28,07,57,0.80
2018,05,28,07,58,0.40
2018,05,28,07,59,1.70
2018,05,28,08,00,0.60
2018,05,28,08,01,0.30
2018,05,28,08,02,0.00
2018,05,28,08,03,0.10
2018,05,28,08,04,4.80
2018,05,28,08,05,3.30
2018,05,28,08,06,2.80
2018,05,28,08,07,2.20
2018,05,28,08,08,0.40
2018,05,28,08,09,0.10
2018,05,28,08,10,1.40
2018,05,28,08,11,0.60
2018,05,28,08,12,0.00
2018,05,28,08,13,0.50
2018,05,28,08,14,1.80
2018,05,28,08,15,5.30
2018,05,28,08,16,1.80
2018,05,28,08,17,2.80
2018,05,28,08,18,2.80
2018,05,28,08,19,0.90
2018,05,28,08,20,1.80
2018,05,28,08,21,0.70
2018,05,28,08,22,0.10
2018,05,28,08,23,1.00
2018,05,28,08,24,2.30
2018,05,28,08,25,5.40
2018,05,28,08,26,7.80
2018,05,28,08,27,8.60
2018,05,28,08,28,5.90
2018,05,28,08,29,7.50
2018,05,28,08,30,5.40
2018,05,28,08,31,4.20
2018,05,28,08,32,5.00
2018,05,28,08,33,4.40
2018,05,28,08,34,5.40
2018,05,28,08,35,3.80
2018,05,28,08,36,3.30
2018,05,28,08,37,4.10
2018,05,28,08,38,5.30
2018,05,28,08,39,4.40
2018,05,28,08,40,2.70
2018,05,28,08,41,5.40
2018,05,28,08,42,4.80
2018,05,28,08,43,7.40
2018,05,28,08,44,6.10
2018,05,28,08,45,6.50
2018,05,28,08,46,6.10
2018,05,28,08,47,4.70
2018,05,28,08,48,4.60
2018,05,28,08,49,4.40
2018,05,28,08,50,9.30
2018,05,28,08,51,8.90
2018,05,28,08,52,6.90
2018,05,28,08,53,5.10
2018,05,28,08,54,2.50
2018,05,28,08,55,1.10
2018,05,28,08,56,1.20
2018,05,28,08,57,6.00
2018,05,28,08,58,7.40
2018,05,28,08,59,6.10
2018,05,28,09,00,5.30
2018,05,28,09,01,4.30
2018,05,28,09,02,2.80
2018,05,28,09,03,0.80
2018,05,28,09,04,1.10
2018,05,28,09,05,2.00
2018,05,28,09,06,2.60
2018,05,28,09,07,4.50
2018,05,28,09,08,4.50
2018,05,28,09,09,2.00
2018,05,28,09,10,0.60
2018,05,28,09,11,3.30
2018,05,28,09,12,5.40
2018,05,28,09,13,5.20
2018,05,28,09,14,5.10
2018,05,28,09,15,2.30
2018,05,28,09,16,0.80
2018,05,28,09,17,0.70
2018,05,28,09,18,1.70
2018,05,28,09,19,4.30
2018,05,28,09,20,3.10
2018,05,28,09,21,3.50
2018,05,28,09,22,6.10
2018,05,28,09,23,5.80
2018,05,28,09,24,6.60
2018,05,28,09,25,5.40
2018,05,28,09,26,4.50
2018,05,28,09,27,5.10
2018,05,28,09,28,4.70
2018,05,28,09,29,4.40
2018,05,28,09,30,5.50
2018,05,28,09,31,7.70
2018,05,28,09,32,9.40
2018,05,28,09,33,8.10
2018,05,28,09,34,4.40
2018,05,28,09,35,2.80
2018,05,28,09,36,2.60
2018,05,28,09,37,3.10
2018,05,28,09,38,2.10
2018,05,28,09,39,0.90
2018,05,28,09,40,1.70
2018,05,28,09,41,3.40
2018,05,28,09,42,2.10
2018,05,28,09,43,2.10
2018,05,28,09,44,4.70
2018,05,28,09,45,3.10
2018,05,28,09,46,2.00
2018,05,28,09,47,1.80
2018,05,28,09,48,4.50
2018,05,28,09,49,7.40
2018,05,28,09,50,5.60
2018,05,28,09,51,7.00
2018,05,28,09,52,4.50
2018,05,28,09,53,6.00
2018,05,28,09,54,9.10
2018,05,28,09,55,5.50
2018,05,28,09,56,6.70
2018,05,28,09,57,8.10
2018,05,28,09,58,3.90
2018,05,28,09,59,3.50
2018,05,28,10,00,2.90
2018,05,28,10,01,6.40
2018,05,28,10,02,6.20
2018,05,28,10,03,7.60
2018,05,28,10,04,8.00
2018,05,28,10,05,7.40
2018,05,28,10,06,8.00
2018,05,28,10,07,8.80
2018,05,28,10,08,6.80
2018,05,28,10,09,9.40
2018,05,28,10,10,9.10
2018,05,28,10,11,8.70
2018,05,28,10,12,7.90
2018,05,28,10,13,10.30
2018,05,28,10,14,8.30
2018,05,28,10,15,9.30
2018,05,28,10,16,5.20
2018,05,28,10,17,7.80
2018,05,28,10,18,8.60
2018,05,28,10,19,11.60
2018,05,28,10,20,9.80
2018,05,28,10,21,7.50
2018,05,28,10,22,8.20
2018,05,28,10,23,8.90
2018,05,28,10,24,6.90
2018,05,28,10,25,6.50
2018,05,28,10,26,6.20
2018,05,28,10,27,8.10
2018,05,28,10,28,9.50
2018,05,28,10,29,6.40
2018,05,28,10,30,6.40
2018,05,28,10,31,7.10
2018,05,28,10,32,10.60
2018,05,28,10,33,6.40
2018,05,28,10,34,10.60
2018,05,28,10,35,9.10
2018,05,28,10,36,11.00
2018,05,28,10,37,10.40
2018,05,28,10,38,8.70
2018,05,28,10,39,10.70
2018,05,28,10,40,7.70
2018,05,28,10,41,8.10
2018,05,28,10,42,6.40
2018,05,28,10,43,6.70
2018,05,28,10,44,11.90
2018,05,28,10,45,8.80
2018,05,28,10,46,9.40
2018,05,28,10,47,8.40
2018,05,28,10,48,7.80
2018,05,28,10,49,7.50
2018,05,28,10,50,3.30
2018,05,28,10,51,4.20
2018,05,28,10,52,5.30
2018,05,28,10,53,6.40
2018,05,28,10,54,7.70
2018,05,28,10,55,7.70
2018,05,28,10,56,5.40
2018,05,28,10,57,3.10
2018,05,28,10,58,7.20
2018,05,28,10,59,4.30
2018,05,28,11,00,4.10
2018,05,28,11,01,2.80
2018,05,28,11,02,6.10
2018,05,28,11,03,7.50
2018,05,28,11,04,6.60
2018,05,28,11,05,6.30
2018,05,28,11,06,4.40
2018,05,28,11,07,5.70
2018,05,28,11,08,4.90
2018,05,28,11,09,1.80
2018,05,28,11,10,3.90
2018,05,28,11,11,3.10
2018,05,28,11,12,4.80
2018,05,28,11,13,0.80
2018,05,28,11,14,2.10
2018,05,28,11,15,2.50
2018,05,28,11,16,1.20
2018,05,28,11,17,1.30
2018,05,28,11,18,1.80
2018,05,28,11,19,5.10
2018,05,28,11,20,6.50
2018,05,28,11,21,7.60
2018,05,28,11,22,8.90
2018,05,28,11,23,6.10
2018,05,28,11,24,9.60
2018,05,28,11,25,7.70
2018,05,28,11,26,11.40
2018,05,28,11,27,4.40
2018,05,28,11,28,4.80
2018,05,28,11,29,5.60
2018,05,28,11,30,5.80
2018,05,28,11,31,4.70
2018,05,28,11,32,3.50
2018,05,28,11,33,5.90
2018,05,28,11,34,5.00
2018,05,28,11,35,5.60
2018,05,28,11,36,2.40
2018,05,28,11,37,1.50
2018,05,28,11,38,5.90
2018,05,28,11,39,5.70
2018,05,28,11,40,4.10
2018,05,28,11,41,2.50
2018,05,28,11,42,3.40
2018,05,28,11,43,3.90
2018,05,28,11,44,5.60
2018,05,28,11,45,3.70
2018,05,28,11,46,2.10
2018,05,28,11,47,0.20
2018,05,28,11,48,0.10
2018,05,28,11,49,2.70
2018,05,28,11,50,3.50
2018,05,28,11,51,6.60
2018,05,28,11,52,3.40
2018,05,28,11,53,4.20
2018,05,28,11,54,6.10
2018,05,28,11,55,4.90
2018,05,28,11,56,6.70
2018,05,28,11,57,4.20
2018,05,28,11,58,5.90
2018,05,28,11,59,6.90
2018,05,28,12,00,2.10
2018,05,28,12,01,0.20
2018,05,28,12,02,1.80
2018,05,28,12,03,3.10
2018,05,28,12,04,5.00
2018,05,28,12,05,5.20
2018,05,28,12,06,8.40
2018,05,28,12,07,2.60
2018,05,28,12,08,0.40
2018,05,28,12,09,3.00
2018,05,28,12,10,5.90
2018,05,28,12,11,3.50
2018,05,28,12,12,11.20
2018,05,28,12,13,10.00
2018,05,28,12,14,7.30
2018,05,28,12,15,1.90
2018,05,28,12,16,1.40
2018,05,28,12,17,3.40
2018,05,28,12,18,1.80
2018,05,28,12,19,0.60
2018,05,28,12,20,6.30
2018,05,28,12,21,1.50
2018,05,28,12,22,1.80
2018,05,28,12,23,1.50
2018,05,28,12,24,0.10
2018,05,28,12,25,1.20
2018,05,28,12,26,1.20
2018,05,28,12,27,1.20
2018,05,28,12,28,3.60
2018,05,28,12,29,4.00
2018,05,28,12,30,3.40
2018,05,28,12,31,1.50
2018,05,28,12,32,3.40
2018,05,28,12,33,3.80
2018,05,28,12,34,1.50
2018,05,28,12,35,0.30
2018,05,28,12,36,3.20
2018,05,28,12,37,0.80
2018,05,28,12,38,4.10
2018,05,28,12,39,6.50
2018,05,28,12,40,6.50
2018,05,28,12,41,3.90
2018,05,28,12,42,6.70
2018,05,28,12,43,6.90
2018,05,28,12,44,4.40
2018,05,28,12,45,5.30
2018,05,28,12,46,7.30
2018,05,28,12,47,2.80
2018,05,28,12,48,1.40
2018,05,28,12,49,4.90
2018,05,28,12,50,4.20
2018,05,28,12,51,3.90
2018,05,28,12,52,2.20
2018,05,28,12,53,0.20
2018,05,28,12,54,0.00
2018,05,28,12,55,1.50
2018,05,28,12,56,2.50
2018,05,28,12,57,6.10
2018,05,28,12,58,4.50
2018,05,28,12,59,3.40
2018,05,28,13,00,1.40
2018,05,28,13,01,5.70
2018,05,28,13,02,7.80
2018,05,28,13,03,8.90
2018,05,28,13,04,5.10
2018,05,28,13,05,1.80
2018,05,28,13,06,0.00
2018,05,28,13,07,0.00
2018,05,28,13,08,0.60
2018,05,28,13,09,3.20
2018,05,28,13,10,5.40
2018,05,28,13,11,6.10
2018,05,28,13,12,4.40
2018,05,28,13,13,6.60
2018,05,28,13,14,9.00
2018,05,28,13,15,11.90
2018,05,28,13,16,6.90
2018,05,28,13,17,1.80
2018,05,28,13,18,2.10
2018,05,28,13,19,1.20
2018,05,28,13,20,0.40
2018,05,28,13,21,1.50
2018,05,28,13,22,0.70
2018,05,28,13,23,2.60
2018,05,28,13,24,12.80
2018,05,28,13,25,7.80
2018,05,28,13,26,5.40
2018,05,28,13,27,2.30
2018,05,28,13,28,11.90
2018,05,28,13,29,12.50
2018,05,28,13,30,9.30
2018,05,28,13,31,9.20
2018,05,28,13,32,8.50
2018,05,28,13,33,6.10
2018,05,28,13,34,2.40
2018,05,28,13,35,4.90
2018,05,28,13,36,6.90
2018,05,28,13,37,5.50
2018,05,28,13,38,5.00
2018,05,28,13,39,5.10
2018,05,28,13,40,8.10
2018,05,28,13,41,9.20
2018,05,28,13,42,5.90
2018,05,28,13,43,5.10
2018,05,28,13,44,4.30
2018,05,28,13,45,0.50
2018,05,28,13,46,0.70
2018,05,28,13,47,0.10
2018,05,28,13,48,1.50
2018,05,28,13,49,2.60
2018,05,28,13,50,1.10
2018,05,28,13,51,0.10
2018,05,28,13,52,1.10
2018,05,28,13,53,0.50
2018,05,28,13,54,0.50
2018,05,28,13,55,3.70
2018,05,28,13,56,5.10
2018,05,28,13,57,5.30
2018,05,28,13,58,7.50
2018,05,28,13,59,9.70
2018,05,28,14,00,8.20
2018,05,28,14,01,6.60
2018,05,28,14,02,7.70
2018,05,28,14,03,6.40
2018,05,28,14,04,3.20
2018,05,28,14,05,1.10
2018,05,28,14,06,0.40
2018,05,28,14,07,0.40
2018,05,28,14,08,2.60
2018,05,28,14,09,3.40
2018,05,28,14,10,2.70
2018,05,28,14,11,0.30
2018,05,28,14,12,0.10
2018,05,28,14,13,1.70
2018,05,28,14,14,1.60
2018,05,28,14,15,6.10
2018,05,28,14,16,7.90
2018,05,28,14,17,7.80
2018,05,28,14,18,7.70
2018,05,28,14,19,8.80
2018,05,28,14,20,8.20
2018,05,28,14,21,7.00
2018,05,28,14,22,4.50
2018,05,28,14,23,4.30
2018,05,28,14,24,3.20
2018,05,28,14,25,3.60
2018,05,28,14,26,2.10
2018,05,28,14,27,5.20
2018,05,28,14,28,6.70
2018,05,28,14,29,3.90
2018,05,28,14,30,2.60
2018,05,28,14,31,1.80
2018,05,28,14,32,1.90
2018,05,28,14,33,2.20
2018,05,28,14,34,2.60
2018,05,28,14,35,2.40
2018,05,28,14,36,3.10
2018,05,28,14,37,1.50
2018,05,28,14,38,0.00
2018,05,28,14,39,3.70
2018,05,28,14,40,4.70
2018,05,28,14,41,2.90
2018,05,28,14,42,1.20
2018,05,28,14,43,2.80
2018,05,28,14,44,1.50
2018,05,28,14,45,0.10
2018,05,28,14,46,0.20
2018,05,28,14,47,0.70
2018,05,28,14,48,1.80
2018,05,28,14,49,2.90
2018,05,28,14,50,5.50
2018,05,28,14,51,4.70
2018,05,28,14,52,3.20
2018,05,28,14,53,4.90
2018,05,28,14,54,10.40
2018,05,28,14,55,7.70
2018,05,28,14,56,5.40
2018,05,28,14,57,6.50
2018,05,28,14,58,7.00
2018,05,28,14,59,6.90
2018,05,28,15,00,4.60
2018,05,28,15,01,3.90
2018,05,28,15,02,1.20
2018,05,28,15,03,0.10
2018,05,28,15,04,2.50
2018,05,28,15,05,4.40
2018,05,28,15,06,4.80
2018,05,28,15,07,5.00
2018,05,28,15,08,3.20
2018,05,28,15,09,1.50
2018,05,28,15,10,4.80
2018,05,28,15,11,3.40
2018,05,28,15,12,4.30
2018,05,28,15,13,5.30
2018,05,28,15,14,10.40
2018,05,28,15,15,5.10
2018,05,28,15,16,12.50
2018,05,28,15,17,4.00
2018,05,28,15,18,4.80
2018,05,28,15,19,5.10
2018,05,28,15,20,8.10
2018,05,28,15,21,13.00
2018,05,28,15,22,12.30
2018,05,28,15,23,17.40
2018,05,28,15,24,8.50
2018,05,28,15,25,8.80
2018,05,28,15,26,11.40
2018,05,28,15,27,11.60
2018,05,28,15,28,11.10
2018,05,28,15,29,13.10
2018,05,28,15,30,11.00
2018,05,28,15,31,12.20
2018,05,28,15,32,13.10
2018,05,28,15,33,16.60
2018,05,28,15,34,8.80
2018,05,28,15,35,8.50
2018,05,28,15,36,19.10
2018,05,28,15,37,12.00
2018,05,28,15,38,11.80
2018,05,28,15,39,13.70
2018,05,28,15,40,16.20
2018,05,28,15,41,14.20
2018,05,28,15,42,8.10
2018,05,28,15,43,14.60
2018,05,28,15,44,11.30
2018,05,28,15,45,10.20
2018,05,28,15,46,11.70
2018,05,28,15,47,13.30
2018,05,28,15,48,10.50
2018,05,28,15,49,14.20
2018,05,28,15,50,9.30
2018,05,28,15,51,12.60
2018,05,28,15,52,6.10
2018,05,28,15,53,11.00
2018,05,28,15,54,8.10
2018,05,28,15,55,5.40
2018,05,28,15,56,10.70
2018,05,28,15,57,14.50
2018,05,28,15,58,9.30
2018,05,28,15,59,11.90
2018,05,28,16,00,12.80
2018,05,28,16,01,10.50
2018,05,28,16,02,9.80
2018,05,28,16,03,9.60
2018,05,28,16,04,11.70
2018,05,28,16,05,8.70
2018,05,28,16,06,7.50
2018,05,28,16,07,11.90
2018,05,28,16,08,10.20
2018,05,28,16,09,10.00
2018,05,28,16,10,11.50
2018,05,28,16,11,11.50
2018,05,28,16,12,12.00
2018,05,28,16,13,13.30
2018,05,28,16,14,12.60
2018,05,28,16,15,13.20
2018,05,28,16,16,13.30
2018,05,28,16,17,15.60
2018,05,28,16,18,9.70
2018,05,28,16,19,15.50
2018,05,28,16,20,15.80
2018,05,28,16,21,11.30
2018,05,28,16,22,12.30
2018,05,28,16,23,10.20
2018,05,28,16,24,7.40
2018,05,28,16,25,6.70
2018,05,28,16,26,5.20
2018,05,28,16,27,5.10
2018,05,28,16,28,4.80
2018,05,28,16,29,3.20
2018,05,28,16,30,3.20
2018,05,28,16,31,5.20
2018,05,28,16,32,9.10
2018,05,28,16,33,14.80
2018,05,28,16,34,8.00
2018,05,28,16,35,10.00
2018,05,28,16,36,12.80
2018,05,28,16,37,11.10
2018,05,28,16,38,11.30
2018,05,28,16,39,6.10
2018,05,28,16,40,4.30
2018,05,28,16,41,10.50
2018,05,28,16,42,10.40
2018,05,28,16,43,8.70
2018,05,28,16,44,9.70
2018,05,28,16,45,8.70
2018,05,28,16,46,5.80
2018,05,28,16,47,5.70
2018,05,28,16,48,6.20
2018,05,28,16,49,6.30
2018,05,28,16,50,3.80
2018,05,28,16,51,7.60
2018,05,28,16,52,4.40
2018,05,28,16,53,6.70
2018,05,28,16,54,3.50
2018,05,28,16,55,6.70
2018,05,28,16,56,5.90
2018,05,28,16,57,4.80
2018,05,28,16,58,4.50
2018,05,28,16,59,4.40
2018,05,28,17,00,10.60
2018,05,28,17,01,6.40
2018,05,28,17,02,3.40
2018,05,28,17,03,7.00
2018,05,28,17,04,8.70
2018,05,28,17,05,12.30
2018,05,28,17,06,12.00
2018,05,28,17,07,8.80
2018,05,28,17,08,3.60
2018,05,28,17,09,7.30
2018,05,28,17,10,4.80
2018,05,28,17,11,1.20
2018,05,28,17,12,4.20
2018,05,28,17,13,7.00
2018,05,28,17,14,5.90
2018,05,28,17,15,7.30
2018,05,28,17,16,4.10
2018,05,28,17,17,7.50
2018,05,28,17,18,16.70
2018,05,28,17,19,7.90
2018,05,28,17,20,3.00
2018,05,28,17,21,5.70
2018,05,28,17,22,9.40
2018,05,28,17,23,4.90
2018,05,28,17,24,3.30
2018,05,28,17,25,5.00
2018,05,28,17,26,1.40
2018,05,28,17,27,6.10
2018,05,28,17,28,4.20
2018,05,28,17,29,6.50
2018,05,28,17,30,4.40
2018,05,28,17,31,0.90
2018,05,28,17,32,2.10
2018,05,28,17,33,3.30
2018,05,28,17,34,2.50
2018,05,28,17,35,5.00
2018,05,28,17,36,4.60
2018,05,28,17,37,1.20
2018,05,28,17,38,1.60
2018,05,28,17,39,5.10
2018,05,28,17,40,10.00
2018,05,28,17,41,7.10
2018,05,28,17,42,5.20
2018,05,28,17,43,5.70
2018,05,28,17,44,10.40
2018,05,28,17,45,6.50
2018,05,28,17,46,4.40
2018,05,28,17,47,8.80
2018,05,28,17,48,8.40
2018,05,28,17,49,8.90
2018,05,28,17,50,7.20
2018,05,28,17,51,4.90
2018,05,28,17,52,7.40
2018,05,28,17,53,5.40
2018,05,28,17,54,6.90
2018,05,28,17,55,9.10
2018,05,28,17,56,7.70
2018,05,28,17,57,3.70
2018,05,28,17,58,3.40
2018,05,28,17,59,3.40
2018,05,28,18,00,6.80
2018,05,28,18,01,7.50
2018,05,28,18,02,8.40
2018,05,28,18,03,4.70
2018,05,28,18,04,6.90
2018,05,28,18,05,12.60
2018,05,28,18,06,5.40